Location: Bratislava
(48.1500°N, 17.1167°E)
Time: 19:14:40
(UTC+02:00)

ISS - Visible Passes

Search period start: 19 April 2025 00:00
Search period end: 29 April 2025 00:00
Orbit: 414 x 421 km, 51.6° (Epoch: 19 April)

Date Brightness Start Highest point End Pass type
(mag) Time Alt. Az. Time Alt. Az. Time Alt. Az.
19 Apr -1.4 05:18:50 10° S 05:21:06 17° SE 05:23:24 10° E visible
20 Apr -1.0 04:32:13 10° SSE 04:33:13 11° SE 04:34:13 10° ESE visible
22 Apr -2.1 04:31:07 14° SSW 04:33:17 25° SE 04:36:06 10° E visible
23 Apr -1.7 03:44:46 16° SSE 03:45:15 17° SE 03:47:28 10° E visible
24 Apr -3.4 04:31:15 19° SW 04:33:24 55° SSE 04:36:41 10° ENE visible
25 Apr -2.9 03:44:45 34° SSE 03:45:12 36° SE 03:48:19 10° ENE visible
26 Apr -1.7 02:58:10 20° ESE 02:58:10 20° ESE 02:59:48 10° E visible
26 Apr -3.7 04:31:04 17° WSW 04:33:32 77° NNW 04:36:54 10° ENE visible
27 Apr -3.9 03:44:25 48° SW 03:45:13 78° SSE 03:48:34 10° ENE visible
28 Apr -2.8 02:57:42 40° E 02:57:42 40° E 03:00:10 10° ENE visible
28 Apr -3.1 04:30:36 11° W 04:33:41 51° N 04:36:58 10° ENE visible
